Regional Weather Roundup
Issued by NWS Newport/Morehead, NC

Current Version | Previous Version | Graphics & Text | Print | Product List | Glossary On
Versions: 1 2 3 4 5 6 7 8 9 10 11 12 13 14 15 16 17 18 19 20 21 22 23 24 25 26 27 28 29 30 31 32 33 34 35 36 37 38 39 40 41 42 43 44 45 46 47 48 49 50
000 ASUS42 KMHX 230813 RWRMHX WEATHER ROUNDUP FOR EASTERN NORTH CAROLINA NATIONAL WEATHER SERVICE NEWPORT/MOREHEAD CITY NC 400 AM EDT SAT MAY 23 2015 NOTE: "FAIR" INDICATES FEW OR NO CLOUDS BELOW 12,000 FEET WITH NO SIGNIFICANT WEATHER AND/OR OBSTRUCTIONS TO VISIBILITY NCZ015>017-031-032-045>047-102-103-230900- NORTH COAST CITY SKY/WX TMP DP RH WIND PRES REMARKS EDENTON CLEAR 56 53 87 CALM 30.28S ELIZABETH CITY CLEAR 59 52 77 W6 30.27R KITTY HAWK SUNNY 62 57 83 SW5 30.26S MANTEO CLEAR 64 57 78 W6 30.28S $$ NCZ045>047-081-094-103-104-230900- CENTRAL COAST CITY SKY/WX TMP DP RH WIND PRES REMARKS FRISCO CLEAR 50 47 89 W3 30.28R SWANQUARTER N/A 61 N/A N/A NW3 30.27R $$ NCZ095-097-098-100-101-230900- SOUTHERN COAST CITY SKY/WX TMP DP RH WIND PRES REMARKS BEAUFORT CLEAR 55 54 96 CALM 30.29R CEDAR ISLAND N/A 59 N/A N/A S2 30.33S JACKSONVILLE CLEAR 53 51 93 CALM 30.29R PINEY ISLAND SUNNY N/A N/A N/A SW5 30.28R WILMINGTON CLEAR 55 54 96 CALM 30.28S $$ NCZ011>013-027>030-043-044-078>080-089-090>093-098-230900- COASTAL PLAIN CITY SKY/WX TMP DP RH WIND PRES REMARKS AHOSKIE CLEAR 49 47 95 CALM 30.30R CLINTON CLEAR 53 52 99 CALM 30.31R ELIZABETHTOWN CLEAR 53 52 95 CALM 30.29R GOLDSBORO CLEAR 53 51 90 CALM 30.28R GREENVILLE CLEAR 54 54 100 CALM 30.30R HAVELOCK CLEAR 53 50 89 CALM 30.30R KENANSVILLE CLEAR 48 48 97 CALM 30.31R KINSTON CLEAR 49 49 97 CALM 30.30S NEW BERN CLEAR 53 50 89 CALM 30.31R RICHLANDS CLEAR 48 45 87 CALM 30.30R ROCKY MOUNT CLEAR 52 50 93 CALM 30.30R WASHINGTON CLEAR 54 51 92 CALM 30.29S WHITEVILLE CLEAR 53 52 94 CALM 30.29R $$ AMZ130-135-150-152-154-156-158-170-250-252-270-ANZ085-086-088-633-658-670-230900- MARINE OBSERVATIONS STATION/POSITION TIME TEMP WIND PRES WAVE SWELL AIR SEA DIR/SP/G HT/PER HT/PER (UTC) (F) (DEG/KT/KT) (MB) (FT/S) (FT/S) CHESAPEAKE LIGHT 0700 63 220/ 9/ 10 1024.9 64 E VA BEACH 0750 61 60 250/ 10/ 10 1024.3 2/ 6 2/ 6 DUCK 0700 67 64 240/ 7/ 9 1023.8 2 E DUCK 0711 65 N/A 1/ 7 OREGON INLET 0700 66 71 250/ 8/ 9 1024.9 13E OREGON INLT 0800 61 N/A 3/ 9 HATTERAS CG 0700 65 73 220/ 4/ 5 1024.6 DIAMOND BUOY 0750 68 77 330/ 6/ 8 1025.3 3/ 9 3/ 9 CAPE LOOKOUT 0800 66 CALM / 1 1025.3 BEAUFORT LAB 0700 63 73 50/ 1/ 1 1024.4 27 SE WRIGHTSVLE 0700 67 77 50/ 6/ 8 N/A 5 SE WRIGHTSVLE 0708 71 76 60/ 8/ 12 1025.1 225 S CAPE HAT 0750 71 74 50/ 16/ 21 1023.4 6/ 9 3/ 9 41 SE CHARLESTON 0750 72 75 50/ 16/ 19 1023.4 3/ 6 $$

USA.gov is the U.S. government's official web portal to all federal, state and local government web resources and services.